Theta_e
301 298 298 296 296 298 301 298 296 295 295 295 295 295 295 295 296 296 296 297 298 299 300 301 302 302 307 310 310 309 309 309 307 308 309 311 317 319 317 317 317 314 314 316 316 317 319
300 300 298 296 295 298 300 297 296 295 295 294 295 295 295 295 295 296 297 299 300 300 301 301 302 302 308 311 310 309 307 307 308 307 308 310 314 315 318 317 317 318 319 317 316 317 317
302 301 299 297 295 296 299 297 295 295 294 294 295 295 295 295 295 297 299 301 301 301 302 302 303 303 309 310 307 307 306 307 308 309 309 307 310 311 315 317 319 319 318 317 317 317 317
302 300 298 297 295 297 296 294 294 294 294 295 295 295 295 295 296 299 301 303 303 304 305 308 308 310 311 307 307 306 305 305 306 307 311 312 307 308 310 316 318 318 316 317 318 316 317
297 297 298 296 295 296 295 294 294 294 295 295 295 295 295 295 297 301 302 304 305 305 306 308 308 310 309 308 306 307 307 306 306 307 309 310 312 307 308 311 314 316 315 316 317 317 316
301 300 298 297 295 297 294 294 294 294 294 294 295 295 295 295 298 302 304 306 308 304 307 310 308 308 307 307 308 308 307 307 306 306 307 311 313 305 305 307 312 314 314 312 315 317 318
297 296 297 296 295 296 294 294 293 294 294 294 295 295 295 295 302 302 303 306 305 306 305 306 306 306 306 307 309 309 308 308 308 307 305 308 308 311 306 307 311 314 315 315 313 313 317
296 295 295 295 294 294 294 294 294 293 294 294 295 295 295 298 304 304 302 304 303 303 307 307 306 306 307 308 309 309 309 308 308 305 306 305 306 309 312 310 310 313 316 315 315 315 317
295 295 294 295 295 294 295 294 294 293 294 294 295 295 295 300 304 305 303 302 303 303 306 309 307 308 308 308 308 309 308 309 308 307 306 304 306 307 309 311 311 310 310 314 315 315 316
295 295 295 295 295 295 294 294 294 293 294 294 295 295 296 298 304 305 304 303 302 307 310 307 307 309 307 307 308 309 308 309 309 309 310 306 306 307 308 310 311 312 311 312 314 316 316
296 295 295 295 295 295 294 294 294 294 294 294 295 296 298 302 305 306 304 300 307 309 300 306 307 308 306 306 306 309 308 309 310 310 310 310 310 307 306 306 311 313 314 313 313 314 314
296 295 295 295 295 295 295 294 294 294 294 294 295 296 296 304 306 306 302 308 309 306 300 306 307 306 306 305 306 308 307 308 310 309 309 309 310 309 306 308 309 311 313 314 312 312 313
296 295 295 295 296 295 295 294 294 294 294 294 295 295 298 300 301 301 306 309 305 298 307 306 306 306 306 305 307 307 306 306 309 310 309 309 309 309 308 307 308 311 315 316 312 312 314
296 295 295 295 295 295 296 295 294 294 294 295 299 299 300 298 296 303 310 306 298 306 306 306 306 307 306 307 307 307 306 305 309 309 309 309 310 310 310 309 311 313 315 317 314 313 315
296 295 295 295 295 295 296 295 294 294 294 298 303 305 304 296 301 309 309 302 300 306 305 305 307 306 307 307 306 307 306 309 310 310 311 309 309 309 309 310 311 312 314 312 312 315 315
297 296 295 295 296 296 296 295 294 294 295 294 303 304 306 298 304 308 304 307 307 305 305 306 307 307 306 306 307 307 307 310 310 310 309 310 311 309 309 310 310 310 312 312 315 318 318
298 297 296 296 295 296 296 295 294 295 295 302 304 306 306 301 307 305 298 303 307 304 304 305 305 305 306 306 306 306 307 309 308 309 308 310 309 308 309 309 308 310 312 314 314 315 314
298 297 296 296 296 296 296 295 294 295 297 302 304 301 302 305 301 302 299 306 304 305 303 303 304 305 305 304 305 305 306 306 308 308 308 309 309 311 307 307 309 310 312 312 315 316 316
297 296 296 296 296 296 296 296 295 295 300 302 305 304 302 304 300 298 303 306 303 303 303 303 303 303 303 303 304 306 304 304 303 303 304 305 305 306 305 306 308 309 311 311 312 314 316
296 296 296 296 295 296 296 295 294 295 297 303 303 298 303 303 301 302 304 304 303 302 302 302 302 303 303 304 304 303 303 303 302 302 303 304 305 306 307 308 309 310 310 310 312 313 314
297 296 296 296 296 296 296 295 294 294 301 302 302 301 302 300 296 302 304 303 304 304 303 302 302 303 303 302 302 302 302 301 302 301 301 302 306 307 306 307 306 306 308 308 309 310 311
296 296 296 296 296 296 296 294 294 294 300 302 299 303 302 302 304 303 302 299 304 304 303 302 303 303 301 301 301 301 301 300 300 301 301 300 300 302 301 302 304 305 305 306 307 308 309
297 296 296 296 296 296 296 294 294 294 297 302 303 302 301 304 304 302 302 304 305 303 302 302 301 301 301 301 301 300 300 299 300 300 300 300 300 300 301 304 303 298 304 306 307 307 308
297 296 296 296 295 296 295 294 293 295 296 302 302 302 301 297 301 302 305 305 304 303 302 302 301 301 301 300 300 299 300 300 300 300 300 300 301 300 299 302 296 301 305 305 305 308 310
296 296 296 296 296 295 296 295 293 294 295 300 301 301 302 296 301 302 304 304 303 303 302 302 302 300 300 299 297 297 298 301 303 303 302 301 301 302 302 303 304 305 306 308 308 309 308
296 296 296 296 296 296 295 295 294 294 295 298 300 300 300 299 298 302 302 302 300 301 301 303 301 301 300 299 295 294 296 301 302 304 304 303 302 304 303 308 304 307 307 306 307 307 305
296 296 296 296 296 295 295 295 295 294 294 295 298 299 299 298 298 300 300 299 302 301 296 301 300 300 300 294 291 293 298 302 302 304 304 302 303 305 307 308 309 306 306 305 308 306 304
296 296 296 295 296 296 295 295 295 295 293 294 295 298 299 298 298 299 300 300 300 300 295 300 297 299 297 294 293 294 300 300 300 303 302 301 300 299 300 298 301 304 304 305 305 303 305
296 295 296 296 295 295 295 295 294 295 294 293 294 297 298 298 297 299 299 299 299 299 300 300 298 300 300 295 296 295 296 295 298 298 300 299 301 301 302 301 301 301 301 303 303 304 304
Wind_Speed
2 5 6 6 6 6 6 7 8 9 10 9 10 10 10 10 10 11 11 11 12 12 12 10 9 8 3 8 11 10 10 13 14 9 10 14 12 13 5 8 15 14 15 29 37 31 30
7 5 6 6 7 5 5 7 8 9 9 10 10 11 9 9 10 11 12 12 12 11 10 10 8 5 7 6 9 9 15 16 17 15 8 6 8 19 15 14 8 15 24 22 31 33 30
5 6 6 7 7 4 6 8 8 9 10 10 10 10 8 8 10 11 11 10 10 10 9 9 9 7 12 7 12 17 16 16 12 14 17 12 10 13 18 12 15 20 13 13 20 19 18
5 8 9 7 6 6 8 8 8 9 9 11 10 9 9 10 13 16 13 11 9 13 12 12 15 13 5 11 15 20 22 19 11 12 13 11 14 16 14 12 13 6 8 5 12 14 21
8 9 7 7 6 7 8 8 9 9 10 11 11 10 11 13 15 16 9 6 6 16 13 9 14 10 5 7 21 19 21 23 23 13 15 14 15 18 14 5 6 6 7 9 10 12 10
6 6 8 7 6 7 9 7 8 8 11 13 12 11 11 12 14 15 7 6 9 15 9 9 11 6 7 13 16 19 15 17 19 16 18 6 7 5 3 5 12 6 10 10 15 5 14
9 9 7 7 7 7 8 7 8 9 11 12 12 10 9 9 12 21 14 6 4 6 10 4 4 2 7 13 12 12 17 17 15 17 6 14 6 12 10 14 19 17 21 22 15 9 18
7 7 7 8 8 7 7 7 8 10 11 11 11 8 7 8 11 18 21 13 11 6 5 3 1 3 7 8 11 15 16 12 11 8 11 8 13 15 14 18 19 21 23 26 22 19 18
9 7 8 8 8 7 7 8 8 9 9 10 9 7 6 5 14 15 13 14 4 3 2 2 4 3 9 7 9 11 19 12 4 6 6 7 16 25 22 21 20 23 23 21 21 16 22
10 9 8 8 7 7 7 8 8 8 8 8 7 6 6 2 5 10 8 11 6 4 3 4 4 3 10 17 4 7 13 7 6 8 10 7 10 19 24 23 20 23 19 22 22 16 15
12 10 9 8 7 7 7 7 7 7 6 6 7 6 7 11 5 9 9 7 4 3 6 5 2 3 17 15 19 7 9 2 2 7 4 11 16 17 21 20 23 17 15 21 23 15 15
12 11 10 7 6 5 6 6 7 6 5 6 6 5 2 5 6 9 8 2 3 4 1 0 4 9 13 17 11 8 16 14 3 3 7 11 20 15 21 16 22 25 22 20 16 15 16
14 12 11 7 6 6 6 6 5 4 4 6 6 4 5 5 5 6 2 3 4 6 8 5 7 9 9 9 5 12 11 9 2 8 14 20 10 16 10 15 19 19 13 8 10 11 11
16 14 13 11 9 7 5 5 4 3 2 4 7 6 8 9 9 2 4 3 8 6 5 8 9 14 2 13 8 9 8 5 7 10 10 8 15 17 20 16 14 10 7 6 10 9 12
16 16 14 13 11 7 6 5 4 3 1 3 6 7 8 12 3 5 5 6 6 3 5 7 10 5 6 14 8 10 9 6 6 11 8 7 9 24 10 16 4 8 10 11 9 7 9
18 16 16 15 11 9 7 5 5 3 0 2 2 4 5 6 3 6 4 3 1 2 5 4 3 5 7 9 8 12 7 7 7 9 9 5 11 8 22 9 8 11 8 6 2 3 6
20 17 16 15 13 12 10 7 6 4 4 7 5 1 3 3 3 5 3 4 3 8 5 4 4 5 5 8 9 9 5 4 7 8 13 5 3 13 13 7 16 15 8 6 1 3 3
24 21 18 16 14 13 11 8 7 6 8 7 2 2 5 2 4 4 2 4 3 2 5 3 3 4 4 8 5 5 4 9 5 9 6 4 4 5 18 21 12 9 10 12 4 7 4
27 25 22 20 16 15 13 11 10 10 10 6 2 2 6 4 3 0 5 4 2 2 3 3 3 3 5 5 4 5 7 17 15 14 10 7 3 7 13 5 9 8 9 8 5 3 4
23 22 23 21 18 16 15 13 11 11 11 8 3 1 1 4 4 1 1 3 2 5 2 1 4 7 4 5 6 6 11 8 23 21 22 14 5 6 6 11 14 14 14 11 6 3 6
25 23 22 20 18 17 16 14 14 13 16 10 5 4 3 2 3 3 2 1 3 3 5 0 1 4 6 4 8 9 9 17 14 15 11 4 3 6 13 15 16 18 20 16 13 10 7
25 24 22 21 20 18 16 17 17 17 18 9 6 4 3 2 11 9 5 3 3 5 1 2 4 6 6 4 6 14 12 7 6 4 6 8 4 13 14 13 13 18 18 19 17 15 13
25 23 21 21 21 19 18 18 20 19 21 7 7 5 1 2 3 4 5 5 7 2 2 3 6 4 5 10 12 15 20 21 18 14 12 7 3 2 5 6 13 8 9 14 12 12 9
26 25 23 23 21 20 19 19 21 22 24 11 13 4 5 3 3 5 8 14 9 6 5 7 10 6 6 13 19 19 25 27 24 23 19 7 2 2 5 5 3 8 9 13 13 6 10
27 26 25 24 22 21 19 18 22 24 25 17 12 5 5 2 6 9 10 8 9 6 6 11 11 1 9 10 4 6 5 4 6 11 15 19 7 3 2 3 9 10 8 8 4 4 9
28 27 26 25 24 22 22 19 20 25 25 22 15 11 6 4 6 8 4 3 1 1 4 2 0 6 4 1 3 1 3 3 4 6 3 14 13 6 2 4 5 3 19 31 12 3 17
28 28 26 25 24 22 21 20 20 22 25 23 19 16 9 4 7 4 3 3 4 2 2 1 1 2 5 2 1 3 4 4 3 3 4 4 2 11 9 5 4 11 17 26 4 4 22
28 27 27 26 25 24 22 20 20 20 23 25 24 19 17 7 12 7 8 5 5 5 4 2 5 4 0 2 2 4 2 3 4 4 5 2 2 2 2 1 6 15 15 3 8 23 15
28 26 26 26 25 25 23 21 20 19 17 26 24 20 16 14 9 8 15 22 22 20 13 7 6 1 7 2 1 1 2 2 2 4 2 4 4 1 2 4 25 23 19 15 19 8 19
Wind_Direction
325 339 354 3 14 15 14 12 13 7 2 360 1 10 15 16 16 7 356 347 345 347 347 1 10 26 95 66 48 357 338 327 334 346 337 334 325 322 285 286 301 252 261 269 278 281 278
334 338 349 360 356 359 356 0 4 4 2 359 7 14 14 18 12 1 352 351 353 355 353 355 6 34 93 93 347 325 338 358 350 340 310 328 297 318 298 283 270 308 308 272 266 271 271
321 317 338 341 340 340 344 355 0 358 359 5 11 9 14 17 9 4 358 7 20 29 21 16 13 42 72 8 45 18 343 343 344 333 308 300 286 308 322 323 312 310 304 307 269 260 269
265 297 312 326 332 332 342 356 360 359 4 10 15 12 21 19 12 7 4 6 25 44 48 66 53 72 56 29 359 339 338 334 323 333 293 290 292 285 290 289 314 299 291 255 252 259 264
270 287 303 320 321 323 335 353 358 4 4 10 12 14 23 20 13 7 359 6 74 44 47 63 52 31 63 335 347 11 4 347 335 338 318 299 279 250 269 300 300 237 252 256 279 229 247
266 281 300 308 312 323 331 351 0 3 5 11 13 15 22 21 16 18 16 46 80 46 38 37 35 325 20 347 3 2 352 351 348 335 333 309 276 222 196 214 236 226 256 264 250 291 238
272 283 294 291 304 313 326 344 357 5 8 9 9 12 18 26 37 36 52 68 44 40 69 36 4 17 333 330 12 357 3 354 355 354 328 301 275 239 239 226 252 261 275 275 273 252 254
278 286 286 286 293 306 320 339 353 0 4 6 8 12 19 39 59 46 39 72 31 17 336 99 22 287 329 305 310 348 358 16 1 350 330 331 284 271 267 243 254 254 253 259 277 275 285
271 274 277 284 289 300 309 329 349 355 0 4 8 8 10 52 64 61 20 41 343 289 236 293 193 203 320 304 299 10 359 352 308 310 332 299 297 304 296 277 250 255 259 266 263 271 273
255 264 272 272 283 293 304 323 341 348 351 360 5 8 9 31 54 56 42 347 16 83 91 141 210 205 336 326 222 357 358 326 344 324 312 271 293 297 299 290 285 254 255 265 269 271 256
253 260 263 270 275 291 308 320 328 335 341 358 6 13 34 62 75 38 331 353 73 43 65 323 77 331 341 346 309 302 324 254 29 331 341 277 299 292 287 295 297 303 307 252 260 267 271
244 255 260 269 284 297 308 313 316 323 337 355 4 17 54 63 48 345 335 50 73 51 354 27 45 359 347 327 302 355 15 357 87 321 297 284 290 272 262 277 292 293 294 293 260 249 257
243 247 256 255 267 289 297 301 304 320 337 354 9 47 79 44 13 356 341 74 48 87 271 25 348 333 298 282 323 21 356 352 33 353 348 326 322 330 222 269 283 271 301 283 259 247 253
244 242 249 252 251 262 284 294 286 298 333 24 62 81 50 19 350 348 38 61 70 262 27 5 335 300 298 17 9 345 322 337 46 17 322 342 324 14 318 313 318 297 270 279 277 257 271
241 238 243 247 248 250 256 269 275 283 333 100 85 67 42 356 66 55 30 53 177 351 19 337 319 358 7 357 345 345 353 30 49 27 3 311 300 307 330 332 281 300 271 288 304 293 274
242 235 237 241 239 236 246 244 235 251 232 153 140 125 294 20 66 42 69 148 253 25 12 333 314 27 350 338 352 354 321 56 1 354 357 309 299 308 330 307 331 347 340 275 255 291 277
235 239 236 235 237 236 235 225 214 206 137 113 120 135 331 43 87 49 113 216 296 17 344 9 2 311 325 333 354 330 300 76 6 348 14 351 292 305 326 10 330 326 20 2 289 131 196
231 231 243 235 230 228 228 218 205 182 141 124 80 43 1 155 47 33 140 349 343 286 349 304 279 289 347 352 310 319 291 356 354 326 352 341 271 288 301 289 47 77 57 34 7 351 312
232 237 232 236 227 223 221 215 195 185 173 163 132 134 48 41 127 175 262 255 267 291 343 20 335 359 356 332 310 289 346 335 357 4 357 340 339 325 321 356 5 43 3 5 309 220 281
229 229 224 230 225 221 215 211 191 184 170 156 159 119 95 108 119 185 195 302 290 158 246 285 306 312 309 320 299 305 315 312 335 328 319 302 223 225 261 292 310 314 321 313 256 259 295
229 226 225 223 225 219 213 204 186 179 167 163 177 203 200 193 258 226 309 306 314 283 174 261 269 336 336 320 309 277 316 319 327 318 338 348 293 316 293 307 311 304 302 313 307 292 270
228 226 222 221 222 218 214 202 184 182 178 179 170 169 176 239 161 172 193 227 243 280 244 182 301 320 344 315 285 304 318 328 268 354 12 333 296 325 303 291 282 290 289 287 284 285 277
225 224 222 223 222 220 217 204 185 184 181 171 182 192 184 225 234 154 205 199 220 188 313 251 262 287 298 288 308 311 300 284 266 279 281 261 258 323 270 301 325 315 237 249 268 286 288
221 223 222 223 224 214 220 206 192 188 188 181 161 164 161 258 223 202 219 206 227 242 234 288 304 286 318 326 321 308 283 268 258 252 231 229 250 239 278 310 347 244 292 301 294 359 32
223 223 224 223 221 215 217 213 198 194 193 192 169 166 182 218 257 288 253 247 256 260 260 257 268 126 350 5 351 342 323 344 261 227 219 207 209 276 267 225 269 293 324 19 49 37 19
220 221 222 221 220 221 216 212 204 200 201 202 181 184 183 165 242 215 310 319 149 254 314 301 60 317 339 66 60 210 278 302 292 321 287 184 197 185 173 246 237 28 6 345 312 199 359
222 219 219 220 219 220 220 218 210 206 206 207 203 197 183 217 253 223 178 199 225 115 145 4 17 41 181 112 136 214 254 277 263 288 351 3 172 222 239 266 266 33 3 345 296 297 325
222 220 218 218 217 216 216 217 212 214 206 206 207 196 203 222 258 229 211 229 242 233 146 204 3 222 170 127 158 242 225 282 322 316 328 303 309 278 279 296 273 349 335 308 238 289 307
220 218 218 216 214 212 213 215 214 214 209 205 211 203 214 233 247 244 241 236 228 230 250 242 213 330 200 133 346 12 330 340 343 278 300 270 182 255 265 259 317 336 332 299 292 291 300